QPF
0.00 0.00 0.00 0.00 0.00 0.00 0.00 0.00 0.00 0.00 0.00 0.00 0.00 0.00 0.00 0.00 0.00 0.00 0.00 0.00 0.00 0.00 0.00 0.00 0.00 0.00 0.00 0.00 0.00 0.02 0.00 0.01 0.01 0.03 0.01 0.00 0.01 0.01 0.01 0.01 0.00 0.02 0.05 0.00 0.00
0.00 0.00 0.00 0.00 0.00 0.00 0.00 0.00 0.00 0.00 0.00 0.00 0.00 0.00 0.00 0.00 0.00 0.00 0.00 0.00 0.00 0.00 0.00 0.00 0.00 0.00 0.00 0.00 0.00 0.02 0.01 0.00 0.00 0.01 0.01 0.00 0.02 0.02 0.01 0.01 0.01 0.07 0.10 0.01 0.00
0.00 0.00 0.00 0.00 0.00 0.00 0.00 0.00 0.00 0.00 0.00 0.00 0.00 0.00 0.00 0.00 0.00 0.00 0.00 0.00 0.00 0.00 0.00 0.00 0.00 0.00 0.00 0.00 0.00 0.00 0.01 0.01 0.00 0.00 0.00 0.01 0.01 0.00 0.00 0.03 0.04 0.04 0.03 0.01 0.00
0.00 0.00 0.00 0.00 0.00 0.00 0.00 0.00 0.00 0.00 0.00 0.00 0.00 0.00 0.00 0.00 0.00 0.00 0.00 0.00 0.00 0.00 0.00 0.00 0.00 0.00 0.00 0.00 0.00 0.00 0.01 0.02 0.01 0.00 0.00 0.00 0.00 0.00 0.00 0.01 0.01 0.00 0.02 0.00 0.00
0.00 0.00 0.00 0.00 0.00 0.00 0.00 0.00 0.00 0.00 0.00 0.00 0.00 0.00 0.00 0.00 0.00 0.00 0.00 0.00 0.00 0.00 0.00 0.00 0.00 0.00 0.00 0.00 0.00 0.00 0.00 0.00 0.00 0.00 0.00 0.00 0.00 0.00 0.00 0.00 0.00 0.00 0.01 0.01 0.00
0.00 0.00 0.00 0.00 0.00 0.00 0.00 0.00 0.00 0.00 0.00 0.00 0.00 0.00 0.00 0.00 0.00 0.00 0.00 0.00 0.00 0.00 0.00 0.00 0.00 0.00 0.00 0.00 0.00 0.00 0.00 0.00 0.01 0.01 0.01 0.01 0.00 0.00 0.00 0.00 0.00 0.00 0.00 0.01 0.00
0.00 0.00 0.00 0.00 0.00 0.00 0.00 0.00 0.00 0.00 0.00 0.00 0.00 0.00 0.00 0.00 0.00 0.00 0.00 0.00 0.00 0.00 0.00 0.00 0.00 0.00 0.00 0.00 0.00 0.00 0.00 0.00 0.00 0.00 0.01 0.00 0.00 0.00 0.00 0.00 0.00 0.00 0.00 0.01 0.00
0.00 0.00 0.00 0.00 0.00 0.00 0.00 0.00 0.00 0.00 0.00 0.00 0.00 0.00 0.00 0.00 0.00 0.00 0.00 0.00 0.00 0.00 0.00 0.00 0.00 0.00 0.00 0.00 0.00 0.00 0.00 0.00 0.00 0.01 0.01 0.00 0.00 0.00 0.00 0.00 0.00 0.00 0.00 0.00 0.00
0.00 0.00 0.00 0.00 0.00 0.00 0.00 0.00 0.00 0.00 0.00 0.00 0.00 0.00 0.00 0.00 0.00 0.00 0.00 0.00 0.00 0.00 0.00 0.00 0.00 0.00 0.00 0.00 0.00 0.00 0.00 0.00 0.00 0.00 0.00 0.00 0.00 0.00 0.00 0.00 0.00 0.00 0.00 0.00 0.00
0.00 0.00 0.00 0.00 0.00 0.00 0.00 0.00 0.00 0.00 0.00 0.00 0.00 0.00 0.00 0.00 0.00 0.00 0.00 0.00 0.00 0.00 0.00 0.00 0.00 0.00 0.00 0.00 0.00 0.00 0.00 0.00 0.00 0.00 0.00 0.00 0.00 0.00 0.00 0.00 0.00 0.00 0.00 0.03 0.01
0.00 0.00 0.00 0.00 0.00 0.00 0.00 0.00 0.00 0.00 0.00 0.00 0.00 0.00 0.00 0.00 0.00 0.00 0.00 0.00 0.00 0.00 0.00 0.00 0.00 0.00 0.00 0.00 0.00 0.00 0.00 0.00 0.00 0.00 0.00 0.00 0.00 0.00 0.00 0.00 0.00 0.00 0.01 0.03 0.04
0.00 0.00 0.00 0.00 0.00 0.00 0.00 0.00 0.00 0.00 0.00 0.00 0.00 0.00 0.00 0.00 0.00 0.00 0.00 0.00 0.00 0.00 0.00 0.00 0.00 0.00 0.00 0.00 0.00 0.00 0.00 0.00 0.00 0.00 0.00 0.00 0.00 0.00 0.00 0.00 0.00 0.00 0.00 0.01 0.11
0.00 0.00 0.00 0.00 0.00 0.00 0.00 0.00 0.00 0.00 0.00 0.00 0.00 0.00 0.00 0.00 0.00 0.00 0.00 0.00 0.00 0.00 0.00 0.00 0.00 0.01 0.00 0.00 0.00 0.00 0.00 0.00 0.00 0.00 0.00 0.00 0.00 0.00 0.00 0.00 0.00 0.00 0.00 0.02 0.10
0.00 0.00 0.00 0.00 0.00 0.00 0.00 0.00 0.00 0.00 0.00 0.00 0.00 0.00 0.00 0.00 0.00 0.00 0.00 0.00 0.00 0.00 0.00 0.00 0.00 0.00 0.00 0.00 0.00 0.00 0.00 0.00 0.00 0.00 0.00 0.00 0.00 0.00 0.00 0.00 0.00 0.00 0.00 0.02 0.06
0.00 0.00 0.00 0.00 0.00 0.00 0.00 0.00 0.00 0.00 0.00 0.00 0.00 0.00 0.00 0.00 0.00 0.00 0.00 0.00 0.00 0.00 0.00 0.00 0.00 0.00 0.00 0.00 0.00 0.00 0.00 0.00 0.00 0.00 0.00 0.00 0.00 0.00 0.00 0.00 0.00 0.00 0.00 0.00 0.04
0.00 0.00 0.00 0.00 0.00 0.00 0.00 0.00 0.00 0.00 0.00 0.00 0.00 0.00 0.00 0.00 0.00 0.00 0.00 0.00 0.00 0.00 0.00 0.00 0.00 0.00 0.00 0.00 0.00 0.00 0.00 0.00 0.00 0.00 0.00 0.00 0.00 0.00 0.00 0.00 0.00 0.01 0.00 0.01 0.01
0.00 0.00 0.00 0.00 0.00 0.00 0.00 0.00 0.00 0.00 0.00 0.00 0.00 0.00 0.00 0.00 0.00 0.00 0.00 0.00 0.00 0.00 0.00 0.00 0.00 0.00 0.00 0.00 0.00 0.00 0.00 0.00 0.00 0.00 0.00 0.00 0.00 0.00 0.00 0.00 0.00 0.01 0.00 0.03 0.03
0.00 0.00 0.00 0.00 0.00 0.00 0.00 0.00 0.00 0.00 0.00 0.00 0.00 0.00 0.00 0.00 0.00 0.00 0.00 0.00 0.00 0.00 0.00 0.00 0.00 0.00 0.00 0.00 0.00 0.00 0.00 0.00 0.00 0.00 0.00 0.00 0.00 0.01 0.01 0.01 0.02 0.02 0.09 0.10 0.10
0.00 0.00 0.00 0.00 0.00 0.00 0.00 0.00 0.00 0.00 0.00 0.00 0.00 0.00 0.00 0.00 0.00 0.00 0.00 0.00 0.00 0.00 0.00 0.00 0.00 0.00 0.00 0.00 0.00 0.00 0.00 0.00 0.00 0.00 0.00 0.00 0.00 0.01 0.01 0.00 0.00 0.01 0.08 0.17 0.09
0.00 0.00 0.00 0.00 0.00 0.00 0.00 0.00 0.00 0.00 0.00 0.00 0.00 0.00 0.00 0.00 0.00 0.00 0.00 0.00 0.00 0.00 0.00 0.00 0.00 0.00 0.00 0.00 0.00 0.00 0.00 0.00 0.00 0.00 0.00 0.00 0.00 0.00 0.00 0.00 0.00 0.00 0.01 0.03 0.08
0.00 0.00 0.00 0.00 0.00 0.00 0.00 0.00 0.00 0.00 0.00 0.00 0.00 0.00 0.00 0.00 0.00 0.00 0.00 0.00 0.00 0.00 0.00 0.00 0.00 0.00 0.01 0.00 0.00 0.00 0.00 0.00 0.00 0.00 0.02 0.01 0.00 0.00 0.01 0.00 0.00 0.00 0.00 0.02 0.03
0.00 0.00 0.00 0.00 0.00 0.00 0.00 0.00 0.00 0.00 0.00 0.00 0.00 0.00 0.00 0.00 0.00 0.00 0.00 0.00 0.00 0.00 0.00 0.00 0.00 0.00 0.00 0.00 0.00 0.00 0.00 0.00 0.00 0.00 0.00 0.01 0.02 0.01 0.00 0.00 0.00 0.00 0.03 0.04 0.02
0.00 0.00 0.00 0.00 0.00 0.00 0.00 0.00 0.00 0.00 0.00 0.00 0.00 0.00 0.00 0.00 0.00 0.00 0.01 0.00 0.00 0.00 0.00 0.00 0.00 0.00 0.00 0.00 0.00 0.00 0.00 0.00 0.00 0.00 0.00 0.02 0.02 0.00 0.00 0.01 0.00 0.00 0.00 0.01 0.00
0.00 0.00 0.00 0.00 0.00 0.00 0.00 0.00 0.00 0.00 0.00 0.00 0.00 0.00 0.00 0.00 0.00 0.00 0.01 0.01 0.00 0.00 0.00 0.00 0.00 0.00 0.00 0.00 0.00 0.00 0.00 0.00 0.00 0.00 0.00 0.00 0.00 0.00 0.00 0.01 0.01 0.00 0.00 0.00 0.01
0.00 0.00 0.00 0.00 0.00 0.00 0.00 0.00 0.00 0.00 0.00 0.00 0.00 0.00 0.00 0.00 0.00 0.00 0.00 0.00 0.00 0.00 0.00 0.00 0.00 0.00 0.00 0.00 0.00 0.00 0.00 0.00 0.00 0.00 0.00 0.00 0.00 0.00 0.00 0.01 0.00 0.00 0.00 0.00 0.00
0.00 0.00 0.00 0.00 0.00 0.00 0.00 0.00 0.00 0.00 0.00 0.00 0.00 0.00 0.00 0.00 0.00 0.00 0.00 0.00 0.00 0.00 0.00 0.00 0.00 0.00 0.00 0.00 0.00 0.00 0.00 0.00 0.00 0.00 0.00 0.00 0.00 0.00 0.00 0.00 0.00 0.00 0.00 0.00 0.00
0.00 0.00 0.00 0.00 0.00 0.00 0.00 0.00 0.00 0.00 0.00 0.00 0.00 0.00 0.00 0.00 0.00 0.00 0.00 0.00 0.00 0.00 0.00 0.00 0.00 0.00 0.00 0.00 0.00 0.00 0.00 0.00 0.00 0.00 0.00 0.00 0.00 0.00 0.00 0.00 0.00 0.00 0.00 0.00 0.00
MSLP
1017.37 1017.01 1016.63 1016.29 1016.02 1015.82 1015.56 1015.24 1015.06 1014.84 1014.63 1014.46 1014.26 1014.09 1013.90 1013.58 1012.69 1012.49 1011.45 1009.28 1008.86 1008.71 1009.00 1008.68 1008.34 1007.98 1007.87 1008.50 1009.84 1012.06 1013.93 1014.26 1013.81 1014.07 1012.26 1008.78 1008.91 1006.24 1006.89 1008.10 1009.26 1010.23 1011.07 1009.72 1010.12
1017.46 1017.02 1016.64 1016.33 1016.00 1015.80 1015.58 1015.31 1015.00 1014.83 1014.66 1014.44 1014.15 1013.99 1013.77 1013.47 1012.76 1011.08 1008.80 1008.47 1008.48 1008.58 1008.75 1008.42 1007.85 1007.44 1007.59 1007.18 1009.96 1011.79 1014.10 1013.18 1012.78 1011.16 1011.59 1009.36 1009.22 1007.94 1007.62 1009.15 1010.62 1010.42 1009.76 1009.90 1010.29
1017.59 1017.11 1016.67 1016.27 1015.97 1015.64 1015.37 1015.06 1014.82 1014.58 1014.43 1014.33 1014.14 1013.89 1013.59 1013.33 1012.31 1008.47 1007.25 1007.73 1008.02 1008.56 1008.40 1007.93 1007.66 1007.45 1006.93 1006.55 1008.64 1010.41 1011.87 1011.28 1010.79 1009.20 1009.48 1009.05 1007.48 1007.92 1007.27 1008.02 1009.19 1009.54 1009.05 1008.46 1009.85
1017.48 1017.04 1016.61 1016.25 1015.91 1015.58 1015.27 1014.96 1014.71 1014.58 1014.45 1014.37 1014.20 1013.89 1013.57 1013.18 1010.74 1006.76 1006.31 1007.00 1007.95 1008.21 1008.18 1007.77 1007.44 1007.34 1006.68 1006.25 1008.31 1009.55 1009.47 1008.95 1007.72 1008.20 1008.27 1008.49 1006.83 1007.10 1006.61 1006.43 1007.10 1007.67 1007.66 1008.58 1009.29
1017.64 1017.12 1016.69 1016.29 1015.87 1015.47 1015.12 1014.82 1014.60 1014.50 1014.47 1014.42 1014.21 1013.85 1013.43 1012.42 1009.37 1006.66 1006.76 1007.35 1007.96 1008.20 1007.97 1007.61 1007.50 1006.84 1006.05 1005.65 1006.11 1007.31 1007.77 1007.70 1006.93 1007.74 1008.69 1007.82 1006.77 1006.27 1006.13 1005.90 1006.35 1007.27 1008.02 1008.46 1008.89
1017.75 1017.12 1016.53 1016.08 1015.71 1015.35 1015.00 1014.67 1014.44 1014.34 1014.32 1014.27 1014.15 1013.99 1013.31 1010.94 1006.36 1006.46 1006.79 1007.51 1007.57 1007.69 1007.35 1007.04 1006.76 1005.89 1005.70 1005.71 1005.71 1005.35 1005.95 1006.68 1007.93 1007.84 1007.69 1007.48 1005.88 1005.53 1005.70 1005.36 1006.51 1007.05 1007.70 1007.90 1008.15
1017.74 1017.17 1016.55 1015.96 1015.43 1015.05 1014.72 1014.45 1014.24 1014.12 1014.11 1014.10 1014.00 1013.57 1012.15 1008.63 1006.12 1006.38 1006.79 1006.85 1006.98 1006.96 1006.85 1006.14 1005.91 1005.88 1006.05 1005.97 1005.11 1005.69 1006.19 1006.30 1006.36 1006.39 1006.28 1006.85 1006.05 1006.00 1005.73 1005.59 1005.75 1006.04 1006.46 1007.46 1007.50
1017.58 1017.00 1016.40 1015.87 1015.31 1014.78 1014.41 1014.14 1013.93 1013.77 1013.81 1013.90 1013.94 1013.28 1010.59 1006.25 1005.72 1006.72 1006.37 1006.51 1006.27 1006.13 1006.08 1005.73 1005.58 1006.07 1006.22 1006.15 1006.09 1006.64 1006.82 1007.16 1006.52 1006.43 1005.68 1006.38 1006.80 1006.62 1006.03 1005.53 1005.55 1005.54 1006.41 1007.30 1007.76
1017.50 1016.91 1016.31 1015.69 1015.16 1014.62 1014.14 1013.73 1013.44 1013.31 1013.41 1013.58 1013.72 1012.66 1008.98 1005.31 1005.62 1005.05 1005.53 1005.78 1005.75 1005.74 1005.71 1005.58 1005.75 1006.35 1006.33 1006.87 1007.27 1007.68 1007.80 1007.48 1007.35 1006.66 1006.55 1006.57 1006.88 1006.44 1006.12 1006.01 1005.42 1005.64 1006.54 1007.52 1008.26
1017.41 1016.81 1016.27 1015.62 1015.02 1014.44 1013.78 1013.51 1012.94 1012.97 1013.15 1013.00 1012.10 1011.58 1007.52 1005.35 1004.84 1004.79 1004.73 1004.99 1005.26 1005.56 1005.90 1005.90 1006.20 1006.74 1007.44 1007.92 1008.40 1008.07 1007.78 1007.09 1007.07 1006.86 1007.01 1006.88 1006.46 1005.67 1005.20 1006.06 1006.06 1006.77 1008.07 1008.99 1008.04
1017.38 1016.60 1016.03 1015.48 1014.82 1014.42 1013.47 1013.10 1013.07 1012.45 1011.58 1009.94 1008.64 1007.25 1005.10 1004.43 1004.24 1004.45 1004.50 1004.93 1005.17 1005.62 1006.19 1006.09 1006.77 1007.44 1007.13 1007.62 1007.44 1007.58 1007.60 1007.30 1006.24 1006.03 1006.26 1006.85 1006.24 1005.88 1005.48 1006.54 1007.96 1008.89 1009.34 1009.55 1009.18
1017.32 1016.46 1015.71 1015.13 1014.62 1014.24 1014.10 1012.45 1009.33 1007.98 1008.35 1007.77 1006.86 1006.24 1005.11 1004.22 1004.11 1004.14 1004.26 1005.07 1005.54 1005.93 1006.02 1006.39 1006.42 1006.68 1006.53 1006.90 1007.25 1006.66 1006.71 1006.07 1005.46 1005.14 1006.00 1005.66 1005.71 1004.79 1005.92 1007.11 1007.85 1008.69 1009.75 1010.35 1012.18
1017.18 1016.32 1015.42 1014.49 1014.03 1013.96 1012.47 1010.15 1008.00 1007.42 1007.60 1005.88 1005.38 1004.78 1003.92 1003.53 1003.59 1003.57 1004.05 1004.69 1005.21 1005.69 1005.73 1005.80 1005.36 1006.04 1005.72 1005.88 1005.96 1005.65 1005.47 1005.51 1004.71 1004.22 1004.27 1005.00 1005.90 1006.56 1007.26 1007.67 1008.83 1009.51 1009.68 1009.34 1008.99
1017.04 1016.14 1015.47 1014.21 1013.34 1011.88 1010.47 1007.77 1007.54 1007.58 1007.36 1004.63 1003.58 1003.59 1003.17 1003.23 1003.36 1003.01 1003.42 1004.32 1004.75 1005.09 1005.15 1004.91 1003.97 1004.76 1004.77 1005.07 1004.70 1004.57 1004.04 1004.12 1004.50 1004.90 1005.25 1005.11 1006.45 1006.93 1007.36 1007.92 1008.55 1009.22 1009.66 1008.97 1008.34
1016.74 1015.92 1015.26 1015.52 1013.90 1011.64 1008.08 1007.06 1006.84 1007.09 1006.68 1002.16 1002.51 1001.86 1002.53 1003.15 1002.48 1002.82 1002.90 1003.59 1004.35 1004.69 1005.00 1004.58 1004.03 1004.02 1004.25 1003.78 1003.39 1003.69 1003.51 1004.19 1004.69 1005.24 1005.75 1005.98 1007.08 1007.35 1007.27 1008.50 1009.00 1008.80 1010.32 1010.53 1009.82
1016.04 1015.59 1015.06 1014.10 1013.71 1009.88 1008.10 1007.25 1007.16 1007.63 1005.08 1002.16 1001.89 1001.98 1002.77 1002.96 1002.80 1002.56 1002.89 1003.13 1003.54 1004.32 1004.38 1004.09 1003.35 1003.20 1002.80 1002.77 1003.00 1003.36 1003.90 1004.51 1005.07 1005.92 1006.86 1006.99 1007.97 1009.30 1009.57 1009.79 1010.03 1009.47 1010.57 1011.72 1011.50
1015.27 1014.18 1014.94 1013.35 1010.62 1008.19 1008.05 1008.09 1008.08 1006.70 1003.42 1002.33 1002.07 1002.19 1002.56 1002.79 1002.81 1002.58 1002.95 1003.44 1004.13 1004.68 1004.91 1004.12 1003.72 1002.93 1002.91 1002.98 1003.32 1004.21 1005.14 1006.10 1006.87 1007.35 1007.95 1007.74 1008.72 1011.57 1011.00 1010.82 1010.68 1010.45 1010.13 1009.92 1011.10
1014.59 1012.72 1011.52 1010.94 1009.35 1008.76 1008.77 1008.73 1007.80 1004.97 1003.77 1002.67 1002.25 1001.96 1002.52 1002.48 1002.64 1002.46 1002.91 1003.62 1003.78 1004.33 1004.83 1004.83 1004.10 1003.30 1003.49 1003.96 1004.54 1005.05 1005.62 1007.15 1007.73 1008.51 1008.75 1008.75 1010.26 1010.90 1010.76 1010.21 1010.99 1011.29 1010.99 1011.55 1012.34
1013.95 1011.55 1010.50 1008.59 1008.75 1008.99 1009.36 1008.75 1006.45 1004.51 1002.98 1002.32 1001.71 1001.84 1002.00 1001.92 1002.10 1002.51 1002.88 1003.46 1004.39 1004.72 1005.59 1005.34 1004.50 1004.14 1004.09 1004.29 1004.76 1004.85 1005.46 1005.97 1007.47 1008.42 1009.33 1010.05 1011.55 1011.51 1011.12 1010.98 1011.75 1011.70 1012.31 1012.25 1013.22
1014.53 1011.87 1008.73 1006.83 1007.67 1008.52 1009.08 1007.98 1005.77 1004.23 1003.18 1002.44 1002.27 1002.00 1002.13 1002.20 1002.28 1002.62 1003.65 1004.08 1004.72 1004.76 1004.81 1005.55 1005.21 1004.60 1004.19 1003.90 1003.79 1004.50 1005.26 1006.17 1007.68 1009.53 1010.39 1010.72 1011.38 1012.10 1011.57 1011.84 1012.11 1012.15 1013.00 1013.53 1012.58
1014.37 1011.27 1006.60 1006.21 1007.36 1008.58 1008.52 1007.11 1005.52 1003.96 1003.09 1002.59 1002.13 1002.39 1002.65 1002.71 1003.00 1003.57 1004.28 1004.41 1004.45 1004.73 1004.32 1006.40 1006.26 1006.13 1005.53 1005.23 1004.96 1004.85 1005.26 1006.39 1008.09 1009.42 1010.87 1011.31 1012.23 1012.25 1012.04 1012.20 1012.35 1013.30 1013.40 1013.26 1012.43
1014.51 1011.09 1006.50 1006.53 1008.04 1008.03 1007.79 1006.73 1005.25 1003.88 1002.84 1002.04 1002.02 1002.50 1002.81 1003.16 1003.74 1004.03 1003.94 1004.52 1004.71 1004.74 1005.85 1006.54 1006.88 1007.15 1006.67 1005.28 1004.87 1004.82 1005.42 1006.28 1008.24 1009.49 1010.44 1011.20 1012.63 1012.58 1012.08 1012.30 1013.09 1013.63 1014.03 1014.05 1013.53
1015.89 1011.52 1006.68 1006.58 1007.67 1007.80 1006.99 1006.22 1005.01 1003.80 1002.91 1002.41 1002.55 1002.87 1002.92 1003.38 1004.12 1004.07 1005.35 1005.69 1005.83 1005.83 1006.72 1007.15 1007.70 1008.15 1007.13 1006.05 1004.94 1005.18 1005.39 1005.90 1007.11 1008.59 1010.23 1011.60 1012.38 1012.34 1012.27 1012.70 1013.08 1013.83 1014.87 1014.94 1014.56
1016.21 1012.10 1008.45 1007.38 1007.51 1007.96 1007.68 1006.28 1004.92 1003.65 1003.00 1002.82 1003.08 1003.13 1003.33 1003.40 1003.28 1003.98 1005.92 1008.13 1007.16 1007.22 1007.48 1007.66 1008.30 1008.63 1008.35 1007.53 1006.67 1005.91 1005.58 1005.97 1007.08 1008.82 1010.13 1011.08 1012.01 1012.57 1012.97 1013.36 1013.48 1014.16 1014.92 1015.08 1015.13
1015.63 1013.06 1011.88 1010.37 1009.33 1009.42 1008.59 1007.13 1005.54 1004.49 1003.78 1003.72 1004.05 1004.19 1004.34 1004.49 1004.45 1005.12 1007.17 1007.92 1007.96 1007.53 1007.66 1007.67 1008.50 1008.57 1008.33 1007.39 1006.51 1005.91 1005.61 1006.01 1006.95 1008.23 1009.66 1010.82 1011.94 1012.89 1013.20 1013.35 1013.53 1013.98 1014.38 1014.63 1014.79
1016.04 1015.24 1013.81 1012.65 1010.95 1009.89 1008.66 1008.03 1006.97 1006.17 1006.55 1006.10 1007.64 1006.97 1004.95 1005.12 1004.97 1005.67 1006.56 1007.61 1007.69 1007.63 1007.78 1007.79 1007.90 1008.25 1008.35 1007.65 1006.51 1005.74 1004.98 1005.77 1006.72 1007.84 1009.28 1010.47 1011.92 1012.58 1013.00 1013.19 1013.53 1013.86 1013.97 1014.23 1014.30
1017.96 1016.66 1015.32 1013.24 1011.79 1010.77 1009.90 1009.14 1008.48 1008.60 1007.46 1008.63 1008.89 1008.55 1007.07 1008.25 1005.71 1005.60 1005.55 1006.07 1006.19 1006.78 1007.69 1007.90 1008.07 1008.53 1008.62 1008.00 1007.04 1006.15 1005.12 1005.54 1006.48 1007.76 1008.82 1010.24 1011.55 1012.34 1013.05 1013.36 1013.52 1013.57 1013.71 1013.88 1013.90
Thickness
5741 5744 5748 5751 5755 5758 5762 5766 5769 5772 5775 5777 5780 5782 5785 5789 5798 5799 5797 5819 5826 5830 5830 5829 5827 5828 5831 5817 5809 5788 5748 5739 5749 5741 5756 5799 5788 5838 5832 5807 5802 5795 5784 5810 5814
5740 5744 5747 5750 5753 5756 5759 5763 5767 5770 5773 5776 5779 5782 5785 5789 5795 5801 5829 5832 5832 5833 5828 5823 5822 5829 5814 5823 5794 5774 5737 5752 5772 5781 5767 5792 5793 5809 5815 5794 5780 5789 5804 5815 5812
5740 5743 5746 5750 5752 5755 5759 5762 5766 5769 5771 5773 5776 5780 5784 5788 5789 5813 5841 5838 5837 5833 5832 5832 5832 5825 5814 5829 5801 5777 5749 5780 5786 5803 5800 5798 5812 5808 5811 5797 5789 5789 5802 5820 5807
5741 5745 5747 5750 5753 5755 5758 5761 5764 5766 5768 5770 5772 5776 5781 5785 5770 5836 5847 5844 5837 5834 5829 5824 5822 5809 5807 5813 5798 5778 5795 5802 5815 5814 5810 5796 5819 5807 5818 5820 5823 5817 5823 5817 5805
5741 5745 5748 5751 5753 5755 5758 5760 5763 5764 5765 5766 5769 5772 5778 5777 5792 5839 5840 5838 5834 5829 5820 5816 5808 5810 5804 5822 5825 5795 5805 5812 5821 5814 5800 5815 5815 5819 5810 5831 5831 5821 5810 5808 5809
5740 5745 5750 5753 5755 5756 5758 5761 5763 5764 5765 5765 5766 5768 5770 5761 5832 5835 5836 5831 5829 5825 5822 5821 5815 5828 5818 5816 5815 5834 5822 5813 5805 5801 5805 5800 5826 5826 5822 5838 5821 5814 5804 5805 5807
5740 5744 5749 5754 5757 5759 5760 5762 5763 5765 5765 5765 5765 5767 5766 5779 5830 5832 5831 5828 5830 5827 5817 5832 5835 5821 5819 5808 5833 5825 5806 5816 5816 5816 5813 5812 5806 5805 5824 5832 5828 5828 5816 5806 5808
5740 5745 5750 5754 5758 5761 5763 5764 5766 5767 5767 5765 5764 5767 5765 5825 5832 5824 5829 5825 5833 5834 5831 5839 5839 5823 5816 5821 5812 5795 5794 5769 5806 5810 5824 5809 5774 5805 5818 5823 5820 5822 5819 5809 5804
5739 5745 5750 5755 5759 5763 5766 5768 5770 5770 5769 5766 5764 5765 5771 5834 5818 5835 5834 5819 5826 5830 5833 5838 5828 5808 5808 5785 5771 5776 5751 5769 5783 5807 5804 5798 5780 5801 5817 5812 5816 5816 5807 5801 5798
5738 5744 5750 5755 5760 5765 5770 5771 5773 5773 5770 5770 5775 5761 5795 5803 5823 5831 5839 5833 5819 5818 5811 5809 5802 5782 5777 5761 5734 5753 5757 5778 5773 5792 5790 5782 5783 5810 5816 5811 5812 5802 5786 5776 5765
5736 5744 5750 5755 5761 5765 5772 5775 5769 5766 5773 5776 5786 5794 5814 5826 5837 5824 5832 5821 5818 5808 5778 5797 5772 5756 5778 5781 5784 5779 5771 5765 5789 5799 5787 5774 5789 5798 5812 5804 5783 5775 5766 5771 5775
5734 5743 5750 5756 5761 5765 5766 5773 5792 5804 5777 5797 5802 5804 5818 5827 5804 5817 5833 5799 5794 5776 5792 5780 5763 5785 5796 5791 5783 5782 5771 5773 5792 5809 5789 5788 5789 5810 5799 5791 5784 5775 5766 5759 5741
5732 5741 5750 5759 5764 5767 5776 5789 5814 5814 5777 5800 5810 5808 5817 5825 5807 5809 5822 5809 5791 5779 5784 5770 5789 5801 5798 5790 5783 5781 5777 5779 5791 5810 5816 5800 5782 5787 5786 5791 5783 5776 5774 5769 5764
5729 5738 5746 5759 5769 5781 5784 5813 5815 5812 5753 5788 5805 5812 5823 5823 5801 5835 5835 5814 5799 5783 5790 5790 5819 5799 5792 5786 5796 5772 5812 5806 5797 5782 5751 5806 5744 5779 5785 5781 5777 5771 5766 5772 5770
5726 5735 5743 5744 5759 5772 5803 5817 5820 5801 5708 5818 5811 5848 5829 5806 5817 5815 5841 5819 5789 5789 5793 5785 5797 5797 5785 5798 5817 5794 5820 5802 5797 5779 5770 5777 5742 5765 5778 5762 5762 5770 5752 5747 5758
5726 5732 5740 5750 5754 5786 5804 5811 5801 5741 5723 5799 5817 5807 5800 5806 5810 5821 5817 5829 5822 5797 5801 5799 5827 5819 5814 5822 5821 5820 5804 5793 5789 5770 5726 5762 5743 5723 5733 5742 5742 5759 5750 5731 5732
5727 5739 5735 5749 5766 5795 5800 5786 5734 5721 5803 5793 5795 5807 5799 5794 5799 5806 5798 5791 5775 5762 5762 5790 5798 5818 5822 5801 5809 5792 5770 5721 5716 5714 5713 5767 5739 5691 5726 5737 5737 5737 5736 5744 5726
5728 5746 5758 5763 5779 5786 5780 5750 5718 5772 5781 5799 5803 5806 5788 5802 5799 5805 5795 5778 5796 5786 5769 5758 5750 5796 5807 5791 5776 5778 5763 5721 5700 5700 5715 5757 5714 5720 5733 5743 5735 5729 5725 5719 5697
5728 5750 5758 5776 5777 5776 5752 5717 5743 5776 5800 5800 5809 5795 5790 5806 5804 5798 5792 5788 5786 5787 5752 5750 5761 5801 5801 5791 5786 5779 5756 5776 5738 5744 5714 5728 5703 5722 5729 5729 5724 5722 5709 5710 5697
5717 5736 5759 5784 5780 5764 5733 5729 5764 5793 5798 5798 5777 5791 5785 5793 5793 5794 5777 5791 5783 5790 5793 5769 5744 5789 5797 5803 5803 5782 5788 5738 5731 5694 5687 5712 5712 5689 5713 5715 5712 5710 5697 5688 5699
5713 5728 5774 5784 5773 5741 5718 5743 5770 5796 5800 5787 5785 5778 5781 5783 5786 5772 5771 5788 5795 5789 5799 5771 5756 5754 5775 5767 5760 5767 5754 5754 5732 5716 5685 5675 5683 5707 5704 5705 5703 5691 5693 5687 5697
5704 5713 5771 5775 5726 5730 5728 5752 5771 5782 5798 5797 5800 5790 5781 5786 5770 5770 5776 5775 5797 5793 5765 5770 5753 5728 5745 5781 5786 5777 5766 5748 5702 5703 5702 5690 5674 5704 5708 5707 5695 5683 5682 5682 5684
5686 5711 5763 5762 5712 5720 5742 5752 5769 5776 5781 5787 5784 5791 5797 5781 5753 5773 5767 5773 5777 5775 5759 5763 5732 5702 5722 5754 5769 5761 5765 5761 5740 5724 5707 5678 5675 5700 5704 5694 5691 5683 5663 5667 5671
5680 5697 5732 5745 5741 5726 5725 5739 5749 5782 5783 5786 5781 5788 5780 5776 5788 5773 5745 5741 5754 5755 5753 5763 5739 5719 5697 5720 5742 5738 5752 5752 5733 5699 5698 5696 5690 5689 5688 5680 5680 5673 5663 5660 5660
5684 5696 5703 5699 5713 5711 5718 5734 5743 5748 5770 5773 5765 5772 5769 5757 5769 5766 5747 5737 5746 5753 5759 5753 5725 5734 5733 5744 5748 5746 5747 5743 5731 5719 5695 5697 5683 5680 5680 5679 5679 5672 5666 5662 5660
5671 5670 5681 5682 5702 5709 5720 5716 5724 5733 5734 5741 5710 5727 5770 5755 5764 5746 5743 5738 5737 5749 5747 5750 5729 5736 5721 5738 5744 5741 5752 5743 5738 5722 5705 5697 5678 5686 5685 5682 5676 5671 5667 5663 5661
5653 5663 5668 5678 5692 5698 5697 5704 5711 5715 5736 5721 5713 5718 5741 5731 5764 5762 5762 5753 5756 5750 5735 5740 5729 5718 5698 5725 5727 5711 5742 5738 5728 5717 5711 5687 5682 5682 5674 5672 5669 5670 5668 5662 5659